TimeEDT,TemperatureF,Dew PointF,Humidity,Sea Level PressureIn,VisibilityMPH,Wind Direction,Wind SpeedMPH,Gust SpeedMPH,PrecipitationIn,Events,Conditions,WindDirDegrees,DateUTC
12:56 AM,30.0,23.0,75,30.23,-9999.0,NW,10.4,24.2,N/A,,Unknown,310,2012-10-13 04:56:00
2:56 AM,28.9,21.9,75,30.25,-9999.0,NW,10.4,17.3,N/A,,Unknown,310,2012-10-13 06:56:00
3:56 AM,28.9,21.9,75,30.25,-9999.0,Variable,5.8,-,N/A,,Unknown,0,2012-10-13 07:56:00
4:56 AM,28.0,23.0,81,30.27,-9999.0,Variable,4.6,-,N/A,,Unknown,0,2012-10-13 08:56:00
5:56 AM,28.0,23.0,81,30.28,-9999.0,NW,8.1,-,N/A,,Unknown,310,2012-10-13 09:56:00
6:56 AM,27.0,21.9,81,30.30,-9999.0,Variable,4.6,-,N/A,,Unknown,0,2012-10-13 10:56:00
7:56 AM,30.0,23.0,75,30.31,-9999.0,Variable,6.9,-,N/A,,Unknown,0,2012-10-13 11:56:00
8:56 AM,32.0,24.1,73,30.32,-9999.0,WNW,8.1,-,N/A,,Unknown,290,2012-10-13 12:56:00
9:56 AM,35.1,21.9,59,30.33,-9999.0,NW,8.1,-,N/A,,Unknown,310,2012-10-13 13:56:00
10:56 AM,36.0,21.0,55,30.32,-9999.0,West,8.1,-,N/A,,Unknown,280,2012-10-13 14:56:00
11:56 AM,37.9,21.9,53,30.31,-9999.0,NW,11.5,20.7,N/A,,Unknown,320,2012-10-13 15:56:00
12:56 PM,37.0,19.0,48,30.30,-9999.0,Variable,4.6,16.1,N/A,,Unknown,0,2012-10-13 16:56:00
1:56 PM,41.0,19.9,43,30.28,-9999.0,WNW,8.1,16.1,N/A,,Unknown,290,2012-10-13 17:56:00
2:56 PM,41.0,19.0,41,30.28,-9999.0,WNW,10.4,23.0,N/A,,Unknown,300,2012-10-13 18:56:00
3:56 PM,39.9,19.9,45,30.28,-9999.0,NW,10.4,-,N/A,,Unknown,310,2012-10-13 19:56:00
4:56 PM,39.0,21.0,49,30.28,-9999.0,NW,11.5,20.7,N/A,,Unknown,310,2012-10-13 20:56:00
5:56 PM,37.0,23.0,57,30.30,-9999.0,Variable,5.8,-,N/A,,Unknown,0,2012-10-13 21:56:00
6:56 PM,35.1,24.1,64,30.32,-9999.0,Calm,Calm,-,N/A,,Unknown,0,2012-10-13 22:56:00
7:56 PM,32.0,24.1,73,30.32,-9999.0,Calm,Calm,-,N/A,,Unknown,0,2012-10-13 23:56:00
8:56 PM,32.0,23.0,69,30.29,-9999.0,Calm,Calm,-,N/A,,Unknown,0,2012-10-14 00:56:00
9:56 PM,33.1,23.0,66,30.29,-9999.0,Calm,Calm,-,N/A,,Unknown,0,2012-10-14 01:56:00
10:56 PM,33.1,26.1,75,30.26,-9999.0,Calm,Calm,-,N/A,,Unknown,0,2012-10-14 02:56:00
11:56 PM,35.1,23.0,61,30.26,-9999.0,South,3.5,-,N/A,,Unknown,190,2012-10-14 03:56:00